Wetterdaten: Dienstag, 15.10.2013
Datum Zeit Temperatur Luftfeuchte Luftdruck Regen Wind Richtung Richtung Taupunkt Windchill Windben
15.10.2013 00:00 5,6 C 93 % 1018,9 hPa 0,0 l/m 0,0 km/h (0 Bft) N-NO 22 4,6 C 5,8 C 0,0 km/h (0 Bft)
15.10.2013 00:05 5,6 C 93 % 1018,9 hPa 0,0 l/m 0,0 km/h (0 Bft) N-NO 22 4,6 C 5,8 C 0,0 km/h (0 Bft)
15.10.2013 00:10 5,7 C 93 % 1019,0 hPa 0,0 l/m 0,0 km/h (0 Bft) N-NO 22 4,7 C 5,8 C 0,0 km/h (0 Bft)
15.10.2013 00:15 6,2 C 92 % 1019,0 hPa 0,0 l/m 0,0 km/h (0 Bft) N-NO 22 5,0 C 5,8 C 0,0 km/h (0 Bft)
15.10.2013 00:20 6,5 C 92 % 1019,0 hPa 0,0 l/m 0,0 km/h (0 Bft) N-NO 22 5,3 C 5,8 C 0,0 km/h (0 Bft)
15.10.2013 00:25 6,6 C 92 % 1019,0 hPa 0,0 l/m 0,0 km/h (0 Bft) N-NO 22 5,4 C 5,8 C 0,0 km/h (0 Bft)
15.10.2013 00:30 6,7 C 91 % 1019,2 hPa 0,0 l/m 0,0 km/h (0 Bft) N-NO 22 5,3 C 5,8 C 0,0 km/h (0 Bft)
15.10.2013 00:35 6,7 C 91 % 1019,2 hPa 0,0 l/m 0,0 km/h (0 Bft) N-NO 22 5,3 C 5,8 C 0,0 km/h (0 Bft)
15.10.2013 00:40 6,9 C 91 % 1019,2 hPa 0,0 l/m 0,0 km/h (0 Bft) N-NO 22 5,5 C 5,8 C 0,0 km/h (0 Bft)
15.10.2013 00:45 7,0 C 90 % 1019,2 hPa 0,0 l/m 0,0 km/h (0 Bft) N-NO 22 5,5 C 5,8 C 0,0 km/h (0 Bft)
15.10.2013 00:50 7,1 C 90 % 1019,0 hPa 0,0 l/m 0,0 km/h (0 Bft) N-NO 22 5,6 C 5,8 C 0,0 km/h (0 Bft)
15.10.2013 00:55 7,1 C 90 % 1019,0 hPa 0,0 l/m 0,0 km/h (0 Bft) N-NO 22 5,6 C 5,8 C 0,0 km/h (0 Bft)
15.10.2013 01:00 7,1 C 90 % 1019,0 hPa 0,0 l/m 0,0 km/h (0 Bft) N-NO 22 5,6 C 5,8 C 0,0 km/h (0 Bft)
15.10.2013 01:05 7,1 C 90 % 1019,0 hPa 0,0 l/m 0,0 km/h (0 Bft) N-NO 22 5,6 C 5,8 C 0,0 km/h (0 Bft)
15.10.2013 01:10 7,1 C 90 % 1018,8 hPa 0,0 l/m 0,0 km/h (0 Bft) N-NO 22 5,6 C 5,8 C 0,0 km/h (0 Bft)
15.10.2013 01:15 7,0 C 89 % 1018,8 hPa 0,0 l/m 0,0 km/h (0 Bft) N-NO 22 5,3 C 5,8 C 0,0 km/h (0 Bft)
15.10.2013 01:20 7,1 C 89 % 1018,8 hPa 0,0 l/m 0,0 km/h (0 Bft) N-NO 22 5,4 C 5,8 C 0,0 km/h (0 Bft)
15.10.2013 01:25 7,0 C 89 % 1018,8 hPa 0,0 l/m 0,0 km/h (0 Bft) N-NO 22 5,3 C 5,8 C 0,0 km/h (0 Bft)
15.10.2013 01:30 6,8 C 90 % 1018,4 hPa 0,0 l/m 0,0 km/h (0 Bft) N-NO 22 5,3 C 5,8 C 0,0 km/h (0 Bft)
15.10.2013 01:35 6,6 C 90 % 1018,4 hPa 0,0 l/m 0,0 km/h (0 Bft) N-NO 22 5,1 C 5,8 C 0,0 km/h (0 Bft)
15.10.2013 01:40 6,3 C 89 % 1018,4 hPa 0,0 l/m 0,0 km/h (0 Bft) N-NO 22 4,6 C 5,8 C 0,0 km/h (0 Bft)
15.10.2013 01:45 6,0 C 89 % 1018,4 hPa 0,0 l/m 0,0 km/h (0 Bft) N-NO 22 4,3 C 5,8 C 0,0 km/h (0 Bft)
15.10.2013 01:50 5,7 C 89 % 1018,6 hPa 0,0 l/m 0,0 km/h (0 Bft) N-NO 22 4,0 C 5,8 C 0,0 km/h (0 Bft)
15.10.2013 01:55 5,5 C 89 % 1018,6 hPa 0,0 l/m 0,0 km/h (0 Bft) N-NO 22 3,8 C 5,8 C 0,0 km/h (0 Bft)
15.10.2013 02:00 5,2 C 89 % 1018,6 hPa 0,0 l/m 0,0 km/h (0 Bft) N-NO 22 3,5 C 5,8 C 0,0 km/h (0 Bft)
15.10.2013 02:05 5,0 C 89 % 1018,6 hPa 0,0 l/m 0,0 km/h (0 Bft) N-NO 22 3,3 C 5,8 C 0,0 km/h (0 Bft)
15.10.2013 02:10 5,2 C 90 % 1018,4 hPa 0,0 l/m 0,0 km/h (0 Bft) N-NO 22 3,7 C 5,8 C 0,0 km/h (0 Bft)
15.10.2013 02:15 5,2 C 90 % 1018,4 hPa 0,0 l/m 0,0 km/h (0 Bft) N-NO 22 3,7 C 5,8 C 0,0 km/h (0 Bft)
15.10.2013 02:20 5,0 C 90 % 1018,4 hPa 0,0 l/m 0,0 km/h (0 Bft) N-NO 22 3,5 C 5,8 C 0,0 km/h (0 Bft)
15.10.2013 02:25 4,9 C 91 % 1018,4 hPa 0,0 l/m 0,0 km/h (0 Bft) N-NO 22 3,6 C 5,8 C 0,0 km/h (0 Bft)
15.10.2013 02:30 4,7 C 91 % 1018,4 hPa 0,0 l/m 0,0 km/h (0 Bft) N-NO 22 3,4 C 5,8 C 0,0 km/h (0 Bft)
15.10.2013 02:35 4,6 C 91 % 1018,4 hPa 0,0 l/m 0,0 km/h (0 Bft) N-NO 22 3,3 C 5,8 C 0,0 km/h (0 Bft)
15.10.2013 02:40 4,6 C 91 % 1018,4 hPa 0,0 l/m 0,0 km/h (0 Bft) N-NO 22 3,3 C 5,8 C 0,0 km/h (0 Bft)
15.10.2013 02:45 4,8 C 91 % 1018,4 hPa 0,0 l/m 0,0 km/h (0 Bft) N-NO 22 3,5 C 5,8 C 0,0 km/h (0 Bft)
15.10.2013 02:50 4,8 C 91 % 1018,2 hPa 0,0 l/m 0,0 km/h (0 Bft) N-NO 22 3,5 C 5,8 C 0,0 km/h (0 Bft)
15.10.2013 02:55 4,8 C 91 % 1018,2 hPa 0,0 l/m 0,0 km/h (0 Bft) N-NO 22 3,5 C 5,8 C 0,0 km/h (0 Bft)
15.10.2013 03:00 5,0 C 92 % 1018,2 hPa 0,0 l/m 0,0 km/h (0 Bft) N-NO 22 3,8 C 5,8 C 0,0 km/h (0 Bft)
15.10.2013 03:05 5,1 C 92 % 1018,2 hPa 0,0 l/m 0,0 km/h (0 Bft) N-NO 22 3,9 C 5,8 C 0,0 km/h (0 Bft)
15.10.2013 03:10 5,2 C 92 % 1018,1 hPa 0,0 l/m 0,0 km/h (0 Bft) N-NO 22 4,0 C 5,8 C 0,0 km/h (0 Bft)
15.10.2013 03:15 5,4 C 92 % 1018,1 hPa 0,0 l/m 0,0 km/h (0 Bft) N-NO 22 4,2 C 5,8 C 0,0 km/h (0 Bft)
15.10.2013 03:20 5,7 C 92 % 1018,1 hPa 0,0 l/m 0,0 km/h (0 Bft) N-NO 22 4,5 C 5,8 C 0,0 km/h (0 Bft)
15.10.2013 03:25 5,8 C 93 % 1018,1 hPa 0,0 l/m 0,0 km/h (0 Bft) N-NO 22 4,8 C 5,8 C 0,0 km/h (0 Bft)
15.10.2013 03:30 5,6 C 92 % 1017,8 hPa 0,0 l/m 0,0 km/h (0 Bft) N-NO 22 4,4 C 5,8 C 0,0 km/h (0 Bft)
15.10.2013 03:35 5,4 C 92 % 1017,8 hPa 0,0 l/m 0,0 km/h (0 Bft) N-NO 22 4,2 C 5,8 C 0,0 km/h (0 Bft)
15.10.2013 03:40 5,3 C 92 % 1017,8 hPa 0,0 l/m 0,0 km/h (0 Bft) N-NO 22 4,1 C 5,8 C 0,0 km/h (0 Bft)
15.10.2013 03:45 5,3 C 92 % 1017,8 hPa 0,0 l/m 0,0 km/h (0 Bft) N-NO 22 4,1 C 5,8 C 0,0 km/h (0 Bft)
15.10.2013 03:50 5,3 C 92 % 1017,6 hPa 0,0 l/m 0,0 km/h (0 Bft) N-NO 22 4,1 C 5,8 C 0,0 km/h (0 Bft)
15.10.2013 03:55 5,5 C 92 % 1017,6 hPa 0,0 l/m 0,0 km/h (0 Bft) N-NO 22 4,3 C 5,8 C 0,0 km/h (0 Bft)
15.10.2013 04:00 5,3 C 92 % 1017,6 hPa 0,0 l/m 0,0 km/h (0 Bft) N-NO 22 4,1 C 5,8 C 0,0 km/h (0 Bft)
15.10.2013 04:05 5,3 C 92 % 1017,6 hPa 0,0 l/m 0,0 km/h (0 Bft) N-NO 22 4,1 C 5,8 C 0,0 km/h (0 Bft)
15.10.2013 04:10 5,6 C 92 % 1017,4 hPa 0,0 l/m 0,0 km/h (0 Bft) N-NO 22 4,4 C 5,8 C 0,0 km/h (0 Bft)
15.10.2013 04:15 5,6 C 92 % 1017,4 hPa 0,0 l/m 0,0 km/h (0 Bft) N-NO 22 4,4 C 5,8 C 0,0 km/h (0 Bft)
15.10.2013 04:18 6,0 C 91 % 1017,4 hPa 0,0 l/m 0,0 km/h (0 Bft) N-NO 22 4,6 C 5,8 C 0,0 km/h (0 Bft)
15.10.2013 04:20 6,0 C 91 % 1017,4 hPa 0,0 l/m 0,0 km/h (0 Bft) N-NO 22 4,6 C 5,8 C 0,0 km/h (0 Bft)
15.10.2013 04:25 6,3 C 91 % 1017,4 hPa 0,0 l/m 0,0 km/h (0 Bft) N-NO 22 4,9 C 5,8 C 0,0 km/h (0 Bft)
15.10.2013 04:30 6,2 C 90 % 1017,3 hPa 0,0 l/m 0,0 km/h (0 Bft) N-NO 22 4,7 C 5,8 C 0,0 km/h (0 Bft)
15.10.2013 04:35 6,1 C 90 % 1017,3 hPa 0,0 l/m 0,0 km/h (0 Bft) N-NO 22 4,6 C 5,8 C 0,0 km/h (0 Bft)
15.10.2013 04:40 6,2 C 90 % 1017,3 hPa 0,0 l/m 0,0 km/h (0 Bft) N-NO 22 4,7 C 5,8 C 0,0 km/h (0 Bft)
15.10.2013 04:45 6,3 C 90 % 1017,3 hPa 0,0 l/m 0,0 km/h (0 Bft) N-NO 22 4,8 C 5,8 C 0,0 km/h (0 Bft)
15.10.2013 04:50 6,2 C 90 % 1017,3 hPa 0,0 l/m 0,0 km/h (0 Bft) N-NO 22 4,7 C 5,8 C 0,0 km/h (0 Bft)
15.10.2013 04:55 6,0 C 90 % 1017,3 hPa 0,0 l/m 0,0 km/h (0 Bft) N-NO 22 4,5 C 5,8 C 0,0 km/h (0 Bft)
15.10.2013 05:00 5,4 C 90 % 1017,3 hPa 0,0 l/m 0,0 km/h (0 Bft) N-NO 22 3,9 C 5,8 C 0,0 km/h (0 Bft)
15.10.2013 05:05 5,0 C 89 % 1017,3 hPa 0,0 l/m 0,0 km/h (0 Bft) N-NO 22 3,3 C 5,8 C 0,0 km/h (0 Bft)
15.10.2013 05:10 4,7 C 90 % 1017,1 hPa 0,0 l/m 0,0 km/h (0 Bft) N-NO 22 3,2 C 5,8 C 0,0 km/h (0 Bft)
15.10.2013 05:15 4,6 C 90 % 1017,1 hPa 0,0 l/m 0,0 km/h (0 Bft) N-NO 22 3,1 C 5,8 C 0,0 km/h (0 Bft)
15.10.2013 05:20 4,8 C 90 % 1017,1 hPa 0,0 l/m 0,0 km/h (0 Bft) N-NO 22 3,3 C 5,8 C 0,0 km/h (0 Bft)
15.10.2013 05:25 4,6 C 90 % 1017,1 hPa 0,0 l/m 0,0 km/h (0 Bft) N-NO 22 3,1 C 5,8 C 0,0 km/h (0 Bft)
15.10.2013 05:30 4,8 C 91 % 1016,8 hPa 0,0 l/m 0,0 km/h (0 Bft) N-NO 22 3,5 C 5,8 C 0,0 km/h (0 Bft)
15.10.2013 05:35 4,7 C 91 % 1016,8 hPa 0,0 l/m 0,0 km/h (0 Bft) N-NO 22 3,4 C 5,8 C 0,0 km/h (0 Bft)
15.10.2013 05:40 4,6 C 91 % 1016,8 hPa 0,0 l/m 0,0 km/h (0 Bft) N-NO 22 3,3 C 5,8 C 0,0 km/h (0 Bft)
15.10.2013 05:45 4,6 C 91 % 1016,8 hPa 0,0 l/m 0,0 km/h (0 Bft) N-NO 22 3,3 C 5,8 C 0,0 km/h (0 Bft)
15.10.2013 05:50 4,4 C 91 % 1017,1 hPa 0,0 l/m 0,0 km/h (0 Bft) N-NO 22 3,1 C 5,8 C 0,0 km/h (0 Bft)
15.10.2013 05:55 4,4 C 91 % 1017,1 hPa 0,0 l/m 0,0 km/h (0 Bft) N-NO 22 3,1 C 5,8 C 0,0 km/h (0 Bft)
15.10.2013 06:00 4,6 C 91 % 1017,1 hPa 0,0 l/m 0,0 km/h (0 Bft) N-NO 22 3,3 C 5,8 C 0,0 km/h (0 Bft)
15.10.2013 06:05 4,7 C 92 % 1017,1 hPa 0,0 l/m 0,0 km/h (0 Bft) N-NO 22 3,5 C 5,8 C 0,0 km/h (0 Bft)
15.10.2013 06:10 4,9 C 92 % 1016,7 hPa 0,0 l/m 0,0 km/h (0 Bft) N-NO 22 3,7 C 5,8 C 0,0 km/h (0 Bft)
15.10.2013 06:15 4,9 C 92 % 1016,7 hPa 0,0 l/m 0,0 km/h (0 Bft) N-NO 22 3,7 C 5,8 C 0,0 km/h (0 Bft)
15.10.2013 06:20 4,4 C 91 % 1016,7 hPa 0,0 l/m 0,0 km/h (0 Bft) N-NO 22 3,1 C 5,8 C 0,0 km/h (0 Bft)
15.10.2013 06:25 4,8 C 92 % 1016,7 hPa 0,0 l/m 0,0 km/h (0 Bft) N-NO 22 3,6 C 5,8 C 0,0 km/h (0 Bft)
15.10.2013 06:30 4,4 C 91 % 1016,6 hPa 0,0 l/m 0,0 km/h (0 Bft) N-NO 22 3,1 C 5,8 C 0,0 km/h (0 Bft)
15.10.2013 06:35 4,2 C 91 % 1016,6 hPa 0,0 l/m 0,0 km/h (0 Bft) N-NO 22 2,9 C 5,8 C 0,0 km/h (0 Bft)
15.10.2013 06:40 3,9 C 91 % 1016,6 hPa 0,0 l/m 0,0 km/h (0 Bft) N-NO 22 2,6 C 5,8 C 0,0 km/h (0 Bft)
15.10.2013 06:45 3,8 C 91 % 1016,6 hPa 0,0 l/m 0,0 km/h (0 Bft) N-NO 22 2,5 C 5,8 C 0,0 km/h (0 Bft)
15.10.2013 06:50 4,1 C 92 % 1016,7 hPa 0,0 l/m 0,0 km/h (0 Bft) N-NO 22 2,9 C 5,8 C 0,0 km/h (0 Bft)
15.10.2013 06:55 4,3 C 92 % 1016,7 hPa 0,0 l/m 0,0 km/h (0 Bft) N-NO 22 3,1 C 5,8 C 0,0 km/h (0 Bft)
15.10.2013 07:00 4,7 C 92 % 1016,7 hPa 0,0 l/m 0,0 km/h (0 Bft) N-NO 22 3,5 C 5,8 C 0,0 km/h (0 Bft)
15.10.2013 07:05 4,9 C 92 % 1016,7 hPa 0,0 l/m 0,0 km/h (0 Bft) N-NO 22 3,7 C 5,8 C 0,0 km/h (0 Bft)
15.10.2013 07:10 5,2 C 92 % 1016,5 hPa 0,0 l/m 0,0 km/h (0 Bft) N-NO 22 4,0 C 5,8 C 0,0 km/h (0 Bft)
15.10.2013 07:15 5,7 C 92 % 1016,5 hPa 0,0 l/m 0,0 km/h (0 Bft) N-NO 22 4,5 C 5,8 C 0,0 km/h (0 Bft)
15.10.2013 07:20 5,8 C 92 % 1016,5 hPa 0,0 l/m 0,0 km/h (0 Bft) N-NO 22 4,6 C 5,8 C 0,0 km/h (0 Bft)
15.10.2013 07:25 5,7 C 92 % 1016,5 hPa 0,0 l/m 0,0 km/h (0 Bft) N-NO 22 4,5 C 5,8 C 0,0 km/h (0 Bft)
15.10.2013 07:30 5,5 C 91 % 1016,6 hPa 0,0 l/m 0,0 km/h (0 Bft) N-NO 22 4,2 C 5,8 C 0,0 km/h (0 Bft)
15.10.2013 07:35 5,4 C 91 % 1016,6 hPa 0,0 l/m 0,0 km/h (0 Bft) N-NO 22 4,1 C 5,8 C 0,0 km/h (0 Bft)
15.10.2013 07:40 5,5 C 91 % 1016,6 hPa 0,0 l/m 0,0 km/h (0 Bft) N-NO 22 4,2 C 5,8 C 0,0 km/h (0 Bft)
15.10.2013 07:45 5,6 C 91 % 1016,6 hPa 0,0 l/m 0,0 km/h (0 Bft) N-NO 22 4,2 C 5,8 C 0,0 km/h (0 Bft)
15.10.2013 07:50 5,8 C 91 % 1016,7 hPa 0,0 l/m 0,0 km/h (0 Bft) N-NO 22 4,4 C 5,8 C 0,0 km/h (0 Bft)
15.10.2013 07:55 5,8 C 91 % 1016,7 hPa 0,0 l/m 0,0 km/h (0 Bft) N-NO 22 4,4 C 5,8 C 0,0 km/h (0 Bft)
15.10.2013 08:00 5,7 C 90 % 1016,7 hPa 0,0 l/m 0,0 km/h (0 Bft) N-NO 22 4,2 C 5,8 C 0,0 km/h (0 Bft)
15.10.2013 08:05 5,5 C 90 % 1016,7 hPa 0,0 l/m 0,0 km/h (0 Bft) N-NO 22 4,0 C 5,8 C 0,0 km/h (0 Bft)
15.10.2013 08:10 5,5 C 89 % 1016,8 hPa 0,0 l/m 0,0 km/h (0 Bft) N-NO 22 3,8 C 5,8 C 0,0 km/h (0 Bft)
15.10.2013 08:15 5,4 C 89 % 1016,8 hPa 0,0 l/m 0,0 km/h (0 Bft) N-NO 22 3,7 C 5,8 C 0,0 km/h (0 Bft)
15.10.2013 08:20 5,5 C 89 % 1016,8 hPa 0,0 l/m 0,0 km/h (0 Bft) N-NO 22 3,8 C 5,8 C 0,0 km/h (0 Bft)
15.10.2013 08:25 5,7 C 90 % 1016,8 hPa 0,0 l/m 0,0 km/h (0 Bft) N-NO 22 4,2 C 5,8 C 0,0 km/h (0 Bft)
15.10.2013 08:30 5,4 C 89 % 1016,6 hPa 0,0 l/m 0,0 km/h (0 Bft) N-NO 22 3,7 C 5,8 C 0,0 km/h (0 Bft)
15.10.2013 08:35 5,9 C 89 % 1016,6 hPa 0,0 l/m 0,0 km/h (0 Bft) N-NO 22 4,2 C 5,8 C 0,0 km/h (0 Bft)
15.10.2013 08:40 6,0 C 89 % 1016,6 hPa 0,0 l/m 0,0 km/h (0 Bft) N-NO 22 4,3 C 5,8 C 0,0 km/h (0 Bft)
15.10.2013 08:45 6,0 C 89 % 1016,6 hPa 0,0 l/m 0,0 km/h (0 Bft) N-NO 22 4,3 C 5,8 C 0,0 km/h (0 Bft)
15.10.2013 08:50 6,6 C 89 % 1016,6 hPa 0,0 l/m 0,0 km/h (0 Bft) N-NO 22 4,9 C 5,8 C 0,0 km/h (0 Bft)
15.10.2013 08:55 7,2 C 89 % 1016,6 hPa 0,0 l/m 0,0 km/h (0 Bft) N-NO 22 5,5 C 5,8 C 0,0 km/h (0 Bft)
15.10.2013 09:00 7,7 C 89 % 1016,6 hPa 0,0 l/m 0,0 km/h (0 Bft) N-NO 22 6,0 C 5,8 C 0,0 km/h (0 Bft)
15.10.2013 09:05 7,9 C 89 % 1016,6 hPa 0,0 l/m 0,0 km/h (0 Bft) N-NO 22 6,2 C 5,8 C 0,0 km/h (0 Bft)
15.10.2013 09:10 8,1 C 88 % 1016,5 hPa 0,0 l/m 0,0 km/h (0 Bft) N-NO 22 6,2 C 5,8 C 0,0 km/h (0 Bft)
15.10.2013 09:15 8,1 C 87 % 1016,5 hPa 0,0 l/m 0,0 km/h (0 Bft) N-NO 22 6,1 C 5,8 C 0,0 km/h (0 Bft)
15.10.2013 09:20 8,2 C 86 % 1016,5 hPa 0,0 l/m 0,0 km/h (0 Bft) N-NO 22 6,0 C 5,8 C 0,0 km/h (0 Bft)
15.10.2013 09:25 8,4 C 86 % 1016,5 hPa 0,0 l/m 0,0 km/h (0 Bft) N-NO 22 6,2 C 5,8 C 0,0 km/h (0 Bft)
15.10.2013 09:30 9,1 C 85 % 1016,6 hPa 0,0 l/m 0,0 km/h (0 Bft) N-NO 22 6,7 C 5,8 C 0,0 km/h (0 Bft)
15.10.2013 09:35 9,4 C 84 % 1016,6 hPa 0,0 l/m 0,0 km/h (0 Bft) N-NO 22 6,8 C 5,8 C 0,0 km/h (0 Bft)
15.10.2013 09:40 9,4 C 84 % 1016,6 hPa 0,0 l/m 0,0 km/h (0 Bft) N-NO 22 6,8 C 5,8 C 0,0 km/h (0 Bft)
15.10.2013 09:45 9,5 C 83 % 1016,6 hPa 0,0 l/m 0,0 km/h (0 Bft) N-NO 22 6,8 C 5,8 C 0,0 km/h (0 Bft)
15.10.2013 09:50 9,9 C 83 % 1016,8 hPa 0,0 l/m 0,0 km/h (0 Bft) N-NO 22 7,2 C 5,8 C 0,0 km/h (0 Bft)
15.10.2013 09:55 9,7 C 82 % 1016,8 hPa 0,0 l/m 0,0 km/h (0 Bft) N-NO 22 6,8 C 5,8 C 0,0 km/h (0 Bft)
15.10.2013 10:00 9,8 C 80 % 1016,8 hPa 0,0 l/m 0,0 km/h (0 Bft) N-NO 22 6,5 C 5,8 C 0,0 km/h (0 Bft)
15.10.2013 10:05 9,8 C 80 % 1016,8 hPa 0,0 l/m 0,0 km/h (0 Bft) N-NO 22 6,5 C 5,8 C 0,0 km/h (0 Bft)
15.10.2013 10:10 9,6 C 80 % 1016,8 hPa 0,0 l/m 0,0 km/h (0 Bft) N-NO 22 6,3 C 5,8 C 0,0 km/h (0 Bft)
15.10.2013 10:15 9,7 C 81 % 1016,8 hPa 0,0 l/m 0,0 km/h (0 Bft) N-NO 22 6,6 C 5,8 C 0,0 km/h (0 Bft)
15.10.2013 10:18 10,1 C 80 % 1016,8 hPa 0,0 l/m 0,0 km/h (0 Bft) N-NO 22 6,8 C 5,8 C 0,0 km/h (0 Bft)
15.10.2013 10:20 10,1 C 80 % 1016,8 hPa 0,0 l/m 0,0 km/h (0 Bft) N-NO 22 6,8 C 5,8 C 0,0 km/h (0 Bft)
15.10.2013 10:25 10,3 C 79 % 1016,8 hPa 0,0 l/m 0,0 km/h (0 Bft) N-NO 22 6,8 C 5,8 C 0,0 km/h (0 Bft)
15.10.2013 10:30 10,4 C 79 % 1016,9 hPa 0,0 l/m 0,0 km/h (0 Bft) N-NO 22 6,9 C 5,8 C 0,0 km/h (0 Bft)
15.10.2013 10:35 10,2 C 78 % 1016,9 hPa 0,0 l/m 0,0 km/h (0 Bft) N-NO 22 6,5 C 5,8 C 0,0 km/h (0 Bft)
15.10.2013 10:40 9,8 C 78 % 1016,9 hPa 0,0 l/m 0,0 km/h (0 Bft) N-NO 22 6,1 C 5,8 C 0,0 km/h (0 Bft)
15.10.2013 10:45 9,6 C 78 % 1016,9 hPa 0,0 l/m 0,0 km/h (0 Bft) N-NO 22 6,0 C 5,8 C 0,0 km/h (0 Bft)
15.10.2013 10:50 9,4 C 79 % 1016,9 hPa 0,0 l/m 0,0 km/h (0 Bft) N-NO 22 5,9 C 5,8 C 0,0 km/h (0 Bft)
15.10.2013 10:55 9,6 C 79 % 1016,9 hPa 0,0 l/m 0,0 km/h (0 Bft) N-NO 22 6,1 C 5,8 C 0,0 km/h (0 Bft)
15.10.2013 11:00 10,2 C 79 % 1016,9 hPa 0,0 l/m 0,0 km/h (0 Bft) N-NO 22 6,7 C 5,8 C 0,0 km/h (0 Bft)
15.10.2013 11:05 10,5 C 78 % 1016,9 hPa 0,0 l/m 0,0 km/h (0 Bft) N-NO 22 6,8 C 5,8 C 0,0 km/h (0 Bft)
15.10.2013 11:10 11,5 C 78 % 1016,7 hPa 0,0 l/m 0,0 km/h (0 Bft) N-NO 22 7,8 C 5,8 C 0,0 km/h (0 Bft)
15.10.2013 11:15 11,7 C 76 % 1016,7 hPa 0,0 l/m 0,0 km/h (0 Bft) N-NO 22 7,6 C 5,8 C 0,0 km/h (0 Bft)
15.10.2013 11:20 12,0 C 73 % 1016,7 hPa 0,0 l/m 0,0 km/h (0 Bft) N-NO 22 7,3 C 5,8 C 0,0 km/h (0 Bft)
15.10.2013 11:25 12,3 C 73 % 1016,7 hPa 0,0 l/m 0,0 km/h (0 Bft) N-NO 22 7,6 C 5,8 C 0,0 km/h (0 Bft)
15.10.2013 11:30 14,3 C 65 % 1016,8 hPa 0,0 l/m 0,0 km/h (0 Bft) N-NO 22 7,8 C 5,8 C 0,0 km/h (0 Bft)
15.10.2013 11:35 13,4 C 66 % 1016,8 hPa 0,0 l/m 0,0 km/h (0 Bft) N-NO 22 7,2 C 5,8 C 0,0 km/h (0 Bft)
15.10.2013 11:40 13,4 C 68 % 1016,8 hPa 0,0 l/m 0,0 km/h (0 Bft) N-NO 22 7,6 C 5,8 C 0,0 km/h (0 Bft)
15.10.2013 11:45 13,6 C 68 % 1016,8 hPa 0,0 l/m 0,0 km/h (0 Bft) N-NO 22 7,8 C 5,8 C 0,0 km/h (0 Bft)
15.10.2013 11:50 13,7 C 67 % 1017,0 hPa 0,0 l/m 0,0 km/h (0 Bft) N-NO 22 7,7 C 5,8 C 0,0 km/h (0 Bft)
15.10.2013 11:55 13,4 C 67 % 1017,0 hPa 0,0 l/m 0,0 km/h (0 Bft) N-NO 22 7,4 C 5,8 C 0,0 km/h (0 Bft)
15.10.2013 12:00 13,8 C 65 % 1017,0 hPa 0,0 l/m 0,0 km/h (0 Bft) N-NO 22 7,3 C 5,8 C 0,0 km/h (0 Bft)
15.10.2013 12:05 14,7 C 64 % 1017,0 hPa 0,0 l/m 0,0 km/h (0 Bft) N-NO 22 8,0 C 5,8 C 0,0 km/h (0 Bft)
15.10.2013 12:10 15,0 C 60 % 1016,6 hPa 0,0 l/m 0,0 km/h (0 Bft) N-NO 22 7,3 C 5,8 C 0,0 km/h (0 Bft)
15.10.2013 12:15 13,6 C 61 % 1016,6 hPa 0,0 l/m 0,0 km/h (0 Bft) N-NO 22 6,2 C 5,8 C 0,0 km/h (0 Bft)
15.10.2013 12:20 13,8 C 63 % 1016,6 hPa 0,0 l/m 0,0 km/h (0 Bft) N-NO 22 6,9 C 5,8 C 0,0 km/h (0 Bft)
15.10.2013 12:25 13,1 C 62 % 1016,6 hPa 0,0 l/m 0,0 km/h (0 Bft) N-NO 22 6,0 C 5,8 C 0,0 km/h (0 Bft)
15.10.2013 12:30 12,9 C 61 % 1016,6 hPa 0,0 l/m 0,0 km/h (0 Bft) N-NO 22 5,6 C 5,8 C 0,0 km/h (0 Bft)
15.10.2013 12:35 13,2 C 61 % 1016,6 hPa 0,0 l/m 0,0 km/h (0 Bft) N-NO 22 5,8 C 5,8 C 0,0 km/h (0 Bft)
15.10.2013 12:40 13,5 C 60 % 1016,6 hPa 0,0 l/m 0,0 km/h (0 Bft) N-NO 22 5,9 C 5,8 C 0,0 km/h (0 Bft)
15.10.2013 12:45 13,1 C 60 % 1016,6 hPa 0,0 l/m 0,0 km/h (0 Bft) N-NO 22 5,5 C 5,8 C 0,0 km/h (0 Bft)
15.10.2013 12:50 13,5 C 59 % 1016,6 hPa 0,0 l/m 0,0 km/h (0 Bft) N-NO 22 5,6 C 5,8 C 0,0 km/h (0 Bft)
15.10.2013 12:55 13,5 C 62 % 1016,6 hPa 0,0 l/m 0,0 km/h (0 Bft) N-NO 22 6,4 C 5,8 C 0,0 km/h (0 Bft)
15.10.2013 13:00 13,8 C 59 % 1016,6 hPa 0,0 l/m 0,0 km/h (0 Bft) N-NO 22 5,9 C 5,8 C 0,0 km/h (0 Bft)
15.10.2013 13:05 13,5 C 59 % 1016,6 hPa 0,0 l/m 0,0 km/h (0 Bft) N-NO 22 5,6 C 5,8 C 0,0 km/h (0 Bft)
15.10.2013 13:10 13,3 C 59 % 1016,4 hPa 0,0 l/m 0,0 km/h (0 Bft) N-NO 22 5,5 C 5,8 C 0,0 km/h (0 Bft)
15.10.2013 13:15 13,3 C 59 % 1016,4 hPa 0,0 l/m 0,0 km/h (0 Bft) N-NO 22 5,5 C 5,8 C 0,0 km/h (0 Bft)
15.10.2013 13:20 13,2 C 59 % 1016,4 hPa 0,0 l/m 0,0 km/h (0 Bft) N-NO 22 5,4 C 5,8 C 0,0 km/h (0 Bft)
15.10.2013 13:25 13,8 C 59 % 1016,4 hPa 0,0 l/m 0,0 km/h (0 Bft) N-NO 22 5,9 C 5,8 C 0,0 km/h (0 Bft)
15.10.2013 13:30 14,3 C 57 % 1016,3 hPa 0,0 l/m 0,0 km/h (0 Bft) N-NO 22 5,9 C 5,8 C 0,0 km/h (0 Bft)
15.10.2013 13:35 14,2 C 57 % 1016,3 hPa 0,0 l/m 0,0 km/h (0 Bft) N-NO 22 5,8 C 5,8 C 0,0 km/h (0 Bft)
15.10.2013 13:40 14,4 C 58 % 1016,3 hPa 0,0 l/m 0,0 km/h (0 Bft) N-NO 22 6,2 C 5,8 C 0,0 km/h (0 Bft)
15.10.2013 13:45 14,8 C 58 % 1016,3 hPa 0,0 l/m 0,0 km/h (0 Bft) N-NO 22 6,6 C 5,8 C 0,0 km/h (0 Bft)
15.10.2013 13:50 15,5 C 57 % 1015,8 hPa 0,0 l/m 0,0 km/h (0 Bft) N-NO 22 7,0 C 5,8 C 0,0 km/h (0 Bft)
15.10.2013 13:55 15,6 C 54 % 1015,8 hPa 0,0 l/m 0,0 km/h (0 Bft) N-NO 22 6,3 C 5,8 C 0,0 km/h (0 Bft)
15.10.2013 14:00 16,0 C 53 % 1015,8 hPa 0,0 l/m 0,0 km/h (0 Bft) N-NO 22 6,4 C 5,8 C 0,0 km/h (0 Bft)
15.10.2013 14:05 15,7 C 55 % 1015,8 hPa 0,0 l/m 0,0 km/h (0 Bft) N-NO 22 6,7 C 5,8 C 0,0 km/h (0 Bft)
15.10.2013 14:10 15,4 C 55 % 1015,6 hPa 0,0 l/m 0,0 km/h (0 Bft) N-NO 22 6,4 C 5,8 C 0,0 km/h (0 Bft)
15.10.2013 14:15 15,2 C 56 % 1015,6 hPa 0,0 l/m 0,0 km/h (0 Bft) N-NO 22 6,5 C 5,8 C 0,0 km/h (0 Bft)
15.10.2013 14:20 14,5 C 57 % 1015,6 hPa 0,0 l/m 0,0 km/h (0 Bft) N-NO 22 6,1 C 5,8 C 0,0 km/h (0 Bft)
15.10.2013 14:25 14,2 C 58 % 1015,6 hPa 0,0 l/m 0,0 km/h (0 Bft) N-NO 22 6,1 C 5,8 C 0,0 km/h (0 Bft)
15.10.2013 14:30 14,4 C 58 % 1015,4 hPa 0,0 l/m 0,0 km/h (0 Bft) N-NO 22 6,2 C 5,8 C 0,0 km/h (0 Bft)
15.10.2013 14:35 14,5 C 58 % 1015,4 hPa 0,0 l/m 0,0 km/h (0 Bft) N-NO 22 6,3 C 5,8 C 0,0 km/h (0 Bft)
15.10.2013 14:40 14,4 C 57 % 1015,4 hPa 0,0 l/m 0,0 km/h (0 Bft) N-NO 22 6,0 C 5,8 C 0,0 km/h (0 Bft)
15.10.2013 14:45 14,3 C 58 % 1015,4 hPa 0,0 l/m 0,0 km/h (0 Bft) N-NO 22 6,2 C 5,8 C 0,0 km/h (0 Bft)
15.10.2013 14:50 14,0 C 57 % 1014,6 hPa 0,0 l/m 0,0 km/h (0 Bft) N-NO 22 5,6 C 5,8 C 0,0 km/h (0 Bft)
15.10.2013 14:55 13,9 C 59 % 1014,6 hPa 0,0 l/m 0,0 km/h (0 Bft) N-NO 22 6,0 C 5,8 C 0,0 km/h (0 Bft)
15.10.2013 15:00 13,9 C 58 % 1014,6 hPa 0,0 l/m 0,0 km/h (0 Bft) N-NO 22 5,8 C 5,8 C 0,0 km/h (0 Bft)
15.10.2013 15:05 13,8 C 58 % 1014,6 hPa 0,0 l/m 0,0 km/h (0 Bft) N-NO 22 5,7 C 5,8 C 0,0 km/h (0 Bft)
15.10.2013 15:10 13,7 C 59 % 1014,3 hPa 0,0 l/m 0,0 km/h (0 Bft) N-NO 22 5,8 C 5,8 C 0,0 km/h (0 Bft)
15.10.2013 15:15 13,7 C 59 % 1014,3 hPa 0,0 l/m 0,0 km/h (0 Bft) N-NO 22 5,8 C 5,8 C 0,0 km/h (0 Bft)
15.10.2013 15:20 13,9 C 59 % 1014,3 hPa 0,0 l/m 0,0 km/h (0 Bft) N-NO 22 6,0 C 5,8 C 0,0 km/h (0 Bft)
15.10.2013 15:25 14,0 C 59 % 1014,3 hPa 0,0 l/m 0,0 km/h (0 Bft) N-NO 22 6,1 C 5,8 C 0,0 km/h (0 Bft)
15.10.2013 15:30 14,1 C 59 % 1014,1 hPa 0,0 l/m 0,0 km/h (0 Bft) N-NO 22 6,2 C 5,8 C 0,0 km/h (0 Bft)
15.10.2013 15:35 14,2 C 60 % 1014,1 hPa 0,0 l/m 0,0 km/h (0 Bft) N-NO 22 6,5 C 5,8 C 0,0 km/h (0 Bft)
15.10.2013 15:40 14,5 C 59 % 1014,1 hPa 0,0 l/m 0,0 km/h (0 Bft) N-NO 22 6,6 C 5,8 C 0,0 km/h (0 Bft)
15.10.2013 15:45 14,8 C 59 % 1014,1 hPa 0,0 l/m 0,0 km/h (0 Bft) N-NO 22 6,9 C 5,8 C 0,0 km/h (0 Bft)
15.10.2013 15:50 14,7 C 59 % 1014,4 hPa 0,0 l/m 0,0 km/h (0 Bft) N-NO 22 6,8 C 5,8 C 0,0 km/h (0 Bft)
15.10.2013 15:55 14,5 C 58 % 1014,4 hPa 0,0 l/m 0,0 km/h (0 Bft) N-NO 22 6,3 C 5,8 C 0,0 km/h (0 Bft)
15.10.2013 16:00 14,2 C 60 % 1014,4 hPa 0,0 l/m 0,0 km/h (0 Bft) N-NO 22 6,5 C 5,8 C 0,0 km/h (0 Bft)
15.10.2013 16:05 14,0 C 60 % 1014,4 hPa 0,0 l/m 0,0 km/h (0 Bft) N-NO 22 6,4 C 5,8 C 0,0 km/h (0 Bft)
15.10.2013 16:10 13,9 C 61 % 1013,8 hPa 0,0 l/m 0,0 km/h (0 Bft) N-NO 22 6,5 C 5,8 C 0,0 km/h (0 Bft)
15.10.2013 16:13 13,7 C 62 % 1013,8 hPa 0,0 l/m 0,0 km/h (0 Bft) N-NO 22 6,6 C 5,8 C 0,0 km/h (0 Bft)
15.10.2013 16:15 13,7 C 62 % 1013,8 hPa 0,0 l/m 0,0 km/h (0 Bft) N-NO 22 6,6 C 5,8 C 0,0 km/h (0 Bft)
15.10.2013 16:20 13,7 C 64 % 1013,8 hPa 0,0 l/m 0,0 km/h (0 Bft) N-NO 22 7,0 C 5,8 C 0,0 km/h (0 Bft)
15.10.2013 16:25 13,9 C 62 % 1013,8 hPa 0,0 l/m 0,0 km/h (0 Bft) N-NO 22 6,7 C 5,8 C 0,0 km/h (0 Bft)
15.10.2013 16:30 13,3 C 64 % 1013,7 hPa 0,0 l/m 0,0 km/h (0 Bft) N-NO 22 6,6 C 5,8 C 0,0 km/h (0 Bft)
15.10.2013 16:35 13,1 C 64 % 1013,7 hPa 0,0 l/m 0,0 km/h (0 Bft) N-NO 22 6,4 C 5,8 C 0,0 km/h (0 Bft)
15.10.2013 16:40 13,0 C 66 % 1013,7 hPa 0,0 l/m 0,0 km/h (0 Bft) N-NO 22 6,8 C 5,8 C 0,0 km/h (0 Bft)
15.10.2013 16:45 13,0 C 66 % 1013,7 hPa 0,0 l/m 0,0 km/h (0 Bft) N-NO 22 6,8 C 5,8 C 0,0 km/h (0 Bft)
15.10.2013 16:50 12,9 C 67 % 1013,4 hPa 0,0 l/m 0,0 km/h (0 Bft) N-NO 22 6,9 C 5,8 C 0,0 km/h (0 Bft)
15.10.2013 16:55 12,7 C 67 % 1013,4 hPa 0,0 l/m 0,0 km/h (0 Bft) N-NO 22 6,7 C 5,8 C 0,0 km/h (0 Bft)
15.10.2013 17:00 12,5 C 68 % 1013,4 hPa 0,0 l/m 0,0 km/h (0 Bft) N-NO 22 6,8 C 5,8 C 0,0 km/h (0 Bft)
15.10.2013 17:05 12,3 C 69 % 1013,4 hPa 0,0 l/m 0,0 km/h (0 Bft) N-NO 22 6,8 C 5,8 C 0,0 km/h (0 Bft)
15.10.2013 17:10 12,1 C 69 % 1013,3 hPa 0,0 l/m 0,0 km/h (0 Bft) N-NO 22 6,6 C 5,8 C 0,0 km/h (0 Bft)
15.10.2013 17:15 11,9 C 70 % 1013,3 hPa 0,0 l/m 0,0 km/h (0 Bft) N-NO 22 6,6 C 5,8 C 0,0 km/h (0 Bft)
15.10.2013 17:20 11,8 C 71 % 1013,3 hPa 0,0 l/m 0,0 km/h (0 Bft) N-NO 22 6,7 C 5,8 C 0,0 km/h (0 Bft)
15.10.2013 17:25 11,6 C 72 % 1013,3 hPa 0,0 l/m 0,0 km/h (0 Bft) N-NO 22 6,7 C 5,8 C 0,0 km/h (0 Bft)
15.10.2013 17:30 11,5 C 72 % 1013,0 hPa 0,0 l/m 0,0 km/h (0 Bft) N-NO 22 6,6 C 5,8 C 0,0 km/h (0 Bft)
15.10.2013 17:35 11,6 C 73 % 1013,0 hPa 0,0 l/m 0,0 km/h (0 Bft) N-NO 22 6,9 C 5,8 C 0,0 km/h (0 Bft)
15.10.2013 17:40 11,5 C 74 % 1013,0 hPa 0,0 l/m 0,0 km/h (0 Bft) N-NO 22 7,0 C 5,8 C 0,0 km/h (0 Bft)
15.10.2013 17:45 11,3 C 75 % 1013,0 hPa 0,0 l/m 0,0 km/h (0 Bft) N-NO 22 7,0 C 5,8 C 0,0 km/h (0 Bft)
15.10.2013 17:50 11,2 C 76 % 1012,9 hPa 0,0 l/m 0,0 km/h (0 Bft) N-NO 22 7,1 C 5,8 C 0,0 km/h (0 Bft)
15.10.2013 17:55 11,1 C 76 % 1012,9 hPa 0,0 l/m 0,0 km/h (0 Bft) N-NO 22 7,0 C 5,8 C 0,0 km/h (0 Bft)
15.10.2013 18:00 11,0 C 76 % 1012,9 hPa 0,0 l/m 0,0 km/h (0 Bft) N-NO 22 6,9 C 5,8 C 0,0 km/h (0 Bft)
15.10.2013 18:05 11,0 C 77 % 1012,9 hPa 0,0 l/m 0,0 km/h (0 Bft) N-NO 22 7,1 C 5,8 C 0,0 km/h (0 Bft)
15.10.2013 18:10 10,9 C 77 % 1012,6 hPa 0,0 l/m 0,0 km/h (0 Bft) N-NO 22 7,0 C 5,8 C 0,0 km/h (0 Bft)
15.10.2013 18:15 10,8 C 78 % 1012,6 hPa 0,0 l/m 0,0 km/h (0 Bft) N-NO 22 7,1 C 5,8 C 0,0 km/h (0 Bft)
15.10.2013 18:20 10,5 C 78 % 1012,6 hPa 0,0 l/m 0,0 km/h (0 Bft) N-NO 22 6,8 C 5,8 C 0,0 km/h (0 Bft)
15.10.2013 18:25 10,5 C 79 % 1012,6 hPa 0,0 l/m 0,0 km/h (0 Bft) N-NO 22 7,0 C 5,8 C 0,0 km/h (0 Bft)
15.10.2013 18:30 10,3 C 79 % 1012,2 hPa 0,0 l/m 0,0 km/h (0 Bft) N-NO 22 6,8 C 5,8 C 0,0 km/h (0 Bft)
15.10.2013 18:35 10,2 C 79 % 1012,2 hPa 0,0 l/m 0,0 km/h (0 Bft) N-NO 22 6,7 C 5,8 C 0,0 km/h (0 Bft)
15.10.2013 18:40 10,2 C 81 % 1012,2 hPa 0,0 l/m 0,0 km/h (0 Bft) N-NO 22 7,1 C 5,8 C 0,0 km/h (0 Bft)
15.10.2013 18:45 10,0 C 81 % 1012,2 hPa 0,0 l/m 0,0 km/h (0 Bft) N-NO 22 6,9 C 5,8 C 0,0 km/h (0 Bft)
15.10.2013 18:50 10,0 C 81 % 1012,6 hPa 0,0 l/m 0,0 km/h (0 Bft) N-NO 22 6,9 C 5,8 C 0,0 km/h (0 Bft)
15.10.2013 18:55 10,0 C 82 % 1012,6 hPa 0,0 l/m 0,0 km/h (0 Bft) N-NO 22 7,1 C 5,8 C 0,0 km/h (0 Bft)
15.10.2013 19:00 9,9 C 82 % 1012,6 hPa 0,0 l/m 0,0 km/h (0 Bft) N-NO 22 7,0 C 5,8 C 0,0 km/h (0 Bft)
15.10.2013 19:05 9,8 C 82 % 1012,6 hPa 0,0 l/m 0,0 km/h (0 Bft) N-NO 22 6,9 C 5,8 C 0,0 km/h (0 Bft)
15.10.2013 19:10 9,9 C 83 % 1012,7 hPa 0,0 l/m 0,0 km/h (0 Bft) N-NO 22 7,2 C 5,8 C 0,0 km/h (0 Bft)
15.10.2013 19:15 9,8 C 83 % 1012,7 hPa 0,0 l/m 0,0 km/h (0 Bft) N-NO 22 7,1 C 5,8 C 0,0 km/h (0 Bft)
15.10.2013 19:20 9,9 C 84 % 1012,7 hPa 0,0 l/m 0,0 km/h (0 Bft) N-NO 22 7,3 C 5,8 C 0,0 km/h (0 Bft)
15.10.2013 19:25 10,0 C 84 % 1012,7 hPa 0,0 l/m 0,0 km/h (0 Bft) N-NO 22 7,4 C 5,8 C 0,0 km/h (0 Bft)
15.10.2013 19:30 10,4 C 83 % 1012,9 hPa 0,0 l/m 0,0 km/h (0 Bft) N-NO 22 7,6 C 5,8 C 0,0 km/h (0 Bft)
15.10.2013 19:35 10,7 C 79 % 1012,9 hPa 0,0 l/m 0,0 km/h (0 Bft) N-NO 22 7,2 C 5,8 C 0,0 km/h (0 Bft)
15.10.2013 19:40 10,6 C 79 % 1012,9 hPa 0,0 l/m 0,0 km/h (0 Bft) N-NO 22 7,1 C 5,8 C 0,0 km/h (0 Bft)
15.10.2013 19:45 10,4 C 79 % 1012,9 hPa 0,0 l/m 0,0 km/h (0 Bft) N-NO 22 6,9 C 5,8 C 0,0 km/h (0 Bft)
15.10.2013 19:50 10,3 C 79 % 1012,6 hPa 0,0 l/m 0,0 km/h (0 Bft) N-NO 22 6,8 C 5,8 C 0,0 km/h (0 Bft)
15.10.2013 19:55 10,3 C 79 % 1012,6 hPa 0,0 l/m 0,0 km/h (0 Bft) N-NO 22 6,8 C 5,8 C 0,0 km/h (0 Bft)
15.10.2013 20:00 10,3 C 79 % 1012,6 hPa 0,0 l/m 0,0 km/h (0 Bft) N-NO 22 6,8 C 5,8 C 0,0 km/h (0 Bft)
15.10.2013 20:05 10,2 C 79 % 1012,6 hPa 0,0 l/m 0,0 km/h (0 Bft) N-NO 22 6,7 C 5,8 C 0,0 km/h (0 Bft)
15.10.2013 20:10 10,1 C 79 % 1012,4 hPa 0,0 l/m 0,0 km/h (0 Bft) N-NO 22 6,6 C 5,8 C 0,0 km/h (0 Bft)
15.10.2013 20:15 10,1 C 79 % 1012,4 hPa 0,0 l/m 0,0 km/h (0 Bft) N-NO 22 6,6 C 5,8 C 0,0 km/h (0 Bft)
15.10.2013 20:20 10,2 C 79 % 1012,4 hPa 0,0 l/m 0,0 km/h (0 Bft) N-NO 22 6,7 C 5,8 C 0,0 km/h (0 Bft)
15.10.2013 20:25 10,2 C 79 % 1012,4 hPa 0,0 l/m 0,0 km/h (0 Bft) N-NO 22 6,7 C 5,8 C 0,0 km/h (0 Bft)
15.10.2013 20:30 10,2 C 79 % 1012,2 hPa 0,0 l/m 0,0 km/h (0 Bft) N-NO 22 6,7 C 5,8 C 0,0 km/h (0 Bft)
15.10.2013 20:35 10,2 C 79 % 1012,2 hPa 0,0 l/m 0,0 km/h (0 Bft) N-NO 22 6,7 C 5,8 C 0,0 km/h (0 Bft)
15.10.2013 20:40 10,2 C 79 % 1012,2 hPa 0,0 l/m 0,0 km/h (0 Bft) N-NO 22 6,7 C 5,8 C 0,0 km/h (0 Bft)
15.10.2013 20:45 10,1 C 79 % 1012,2 hPa 0,0 l/m 0,0 km/h (0 Bft) N-NO 22 6,6 C 5,8 C 0,0 km/h (0 Bft)
15.10.2013 20:50 10,0 C 79 % 1012,1 hPa 0,0 l/m 0,0 km/h (0 Bft) N-NO 22 6,5 C 5,8 C 0,0 km/h (0 Bft)
15.10.2013 20:55 9,9 C 80 % 1012,1 hPa 0,0 l/m 0,0 km/h (0 Bft) N-NO 22 6,6 C 5,8 C 0,0 km/h (0 Bft)
15.10.2013 21:00 10,0 C 80 % 1012,1 hPa 0,0 l/m 0,0 km/h (0 Bft) N-NO 22 6,7 C 5,8 C 0,0 km/h (0 Bft)
15.10.2013 21:05 10,0 C 80 % 1012,1 hPa 0,0 l/m 0,0 km/h (0 Bft) N-NO 22 6,7 C 5,8 C 0,0 km/h (0 Bft)
15.10.2013 21:10 9,7 C 82 % 1012,2 hPa 0,0 l/m 0,0 km/h (0 Bft) N-NO 22 6,8 C 5,8 C 0,0 km/h (0 Bft)
15.10.2013 21:15 9,7 C 83 % 1012,2 hPa 0,0 l/m 0,0 km/h (0 Bft) N-NO 22 7,0 C 5,8 C 0,0 km/h (0 Bft)
15.10.2013 21:20 9,4 C 86 % 1012,2 hPa 0,0 l/m 0,0 km/h (0 Bft) N-NO 22 7,2 C 5,8 C 0,0 km/h (0 Bft)
15.10.2013 21:25 9,3 C 87 % 1012,2 hPa 0,0 l/m 0,0 km/h (0 Bft) N-NO 22 7,2 C 5,8 C 0,0 km/h (0 Bft)
15.10.2013 21:30 9,0 C 89 % 1012,3 hPa 0,0 l/m 0,0 km/h (0 Bft) N-NO 22 7,3 C 5,8 C 0,0 km/h (0 Bft)
15.10.2013 21:35 8,9 C 90 % 1012,3 hPa 0,7 l/m 0,0 km/h (0 Bft) N-NO 22 7,4 C 5,8 C 0,0 km/h (0 Bft)
15.10.2013 21:40 8,7 C 90 % 1012,3 hPa 0,0 l/m 0,0 km/h (0 Bft) N-NO 22 7,2 C 5,8 C 0,0 km/h (0 Bft)
15.10.2013 21:45 8,7 C 91 % 1012,3 hPa 0,0 l/m 0,0 km/h (0 Bft) N-NO 22 7,3 C 5,8 C 0,0 km/h (0 Bft)
15.10.2013 21:50 8,7 C 91 % 1012,2 hPa 0,7 l/m 0,0 km/h (0 Bft) N-NO 22 7,3 C 5,8 C 0,0 km/h (0 Bft)
15.10.2013 21:55 8,6 C 92 % 1012,2 hPa 0,0 l/m 0,0 km/h (0 Bft) N-NO 22 7,4 C 5,8 C 0,0 km/h (0 Bft)
15.10.2013 22:00 8,5 C 92 % 1012,2 hPa 0,0 l/m 0,0 km/h (0 Bft) N-NO 22 7,3 C 5,8 C 0,0 km/h (0 Bft)
15.10.2013 22:05 8,5 C 92 % 1012,2 hPa 0,7 l/m 0,0 km/h (0 Bft) N-NO 22 7,3 C 5,8 C 0,0 km/h (0 Bft)
15.10.2013 22:10 8,5 C 93 % 1012,2 hPa 0,0 l/m 0,0 km/h (0 Bft) N-NO 22 7,4 C 5,8 C 0,0 km/h (0 Bft)
15.10.2013 22:13 8,4 C 93 % 1012,2 hPa 0,7 l/m 0,0 km/h (0 Bft) N-NO 22 7,3 C 5,8 C 0,0 km/h (0 Bft)
15.10.2013 22:15 8,4 C 93 % 1012,2 hPa 0,0 l/m 0,0 km/h (0 Bft) N-NO 22 7,3 C 5,8 C 0,0 km/h (0 Bft)
15.10.2013 22:20 8,4 C 93 % 1012,2 hPa 0,7 l/m 0,0 km/h (0 Bft) N-NO 22 7,3 C 5,8 C 0,0 km/h (0 Bft)
15.10.2013 22:25 8,3 C 93 % 1012,2 hPa 0,0 l/m 0,0 km/h (0 Bft) N-NO 22 7,2 C 5,8 C 0,0 km/h (0 Bft)
15.10.2013 22:30 8,3 C 93 % 1012,4 hPa 0,7 l/m 0,0 km/h (0 Bft) N-NO 22 7,2 C 5,8 C 0,0 km/h (0 Bft)
15.10.2013 22:35 8,3 C 93 % 1012,4 hPa 0,0 l/m 0,0 km/h (0 Bft) N-NO 22 7,2 C 5,8 C 0,0 km/h (0 Bft)
15.10.2013 22:40 8,2 C 94 % 1012,4 hPa 0,0 l/m 0,0 km/h (0 Bft) N-NO 22 7,3 C 5,8 C 0,0 km/h (0 Bft)
15.10.2013 22:45 8,2 C 94 % 1012,4 hPa 0,0 l/m 0,0 km/h (0 Bft) N-NO 22 7,3 C 5,8 C 0,0 km/h (0 Bft)
15.10.2013 22:50 8,2 C 94 % 1012,2 hPa 1,4 l/m 0,0 km/h (0 Bft) N-NO 22 7,3 C 5,8 C 0,0 km/h (0 Bft)
15.10.2013 22:55 8,2 C 94 % 1012,2 hPa 0,0 l/m 0,0 km/h (0 Bft) N-NO 22 7,3 C 5,8 C 0,0 km/h (0 Bft)
15.10.2013 23:00 8,0 C 94 % 1012,2 hPa 0,7 l/m 0,0 km/h (0 Bft) N-NO 22 7,1 C 5,8 C 0,0 km/h (0 Bft)
15.10.2013 23:05 7,6 C 94 % 1012,2 hPa 0,7 l/m 0,0 km/h (0 Bft) N-NO 22 6,7 C 5,8 C 0,0 km/h (0 Bft)
15.10.2013 23:10 7,2 C 94 % 1012,9 hPa 0,7 l/m 0,0 km/h (0 Bft) N-NO 22 6,3 C 5,8 C 0,0 km/h (0 Bft)
15.10.2013 23:15 7,0 C 94 % 1012,9 hPa 1,4 l/m 0,0 km/h (0 Bft) N-NO 22 6,1 C 5,8 C 0,0 km/h (0 Bft)
15.10.2013 23:20 6,8 C 94 % 1012,9 hPa 0,7 l/m 0,0 km/h (0 Bft) N-NO 22 5,9 C 5,8 C 0,0 km/h (0 Bft)
15.10.2013 23:25 6,7 C 94 % 1012,9 hPa 0,0 l/m 0,0 km/h (0 Bft) N-NO 22 5,8 C 5,8 C 0,0 km/h (0 Bft)
15.10.2013 23:30 6,7 C 94 % 1013,3 hPa 0,7 l/m 0,0 km/h (0 Bft) N-NO 22 5,8 C 5,8 C 0,0 km/h (0 Bft)
15.10.2013 23:35 6,6 C 94 % 1013,3 hPa 0,0 l/m 4,5 km/h (1 Bft) O-SO 112 5,7 C 6,5 C 5,8 km/h (2 Bft)
15.10.2013 23:40 6,4 C 94 % 1013,3 hPa 0,7 l/m 5,3 km/h (1 Bft) O-SO 112 5,5 C 5,9 C 14,0 km/h (3 Bft)
15.10.2013 23:45 6,2 C 94 % 1013,3 hPa 0,0 l/m 4,8 km/h (1 Bft) S-SO 157 5,3 C 5,9 C 4,5 km/h (1 Bft)
15.10.2013 23:50 6,1 C 94 % 1013,8 hPa 0,0 l/m 4,0 km/h (1 Bft) SO 135 5,2 C 6,1 C 1,9 km/h (1 Bft)
15.10.2013 23:55 6,0 C 94 % 1013,8 hPa 0,7 l/m 2,6 km/h (1 Bft) O-NO 67 5,1 C 6,3 C 3,4 km/h (1 Bft)
_ Min-Zeit 06:45 14:00 21:05 - 23:30 - - 06:45 23:30 23:30
Minimum _ 3,8 C 53 % 1012,1 hPa - 0,0 km/h (0 Bft) - - 2,5 C 5,8 C 0,0 km/h (0 Bft)
_ Max-Zeit 14:00 23:55 00:45 23:15 23:40 - - 12:05 23:35 23:40
Maximum _ 16,0 C 94 % 1019,2 hPa 1,4 l/m 5,3 km/h
O-SO (1 Bft)
- - 8,0 C 6,5 C 14,0 km/h
O-SO (3 Bft)
Durchschnitt _ 9,1 C 81 % 1015,6 hPa #11,7 l/m 0,1 km/h (0 Bft) O-SO - 5,7 C 5,8 C 0,1 km/h (0 Bft)